Location: Ferma
(41.9500°N, 44.5167°E)
Time: 20:05:21
(UTC+00:00)

BREEZE-M DEB (TANK) - Pass Details

Date: 03 June 2022
Orbit: 338 x 14778 km, 49.6° (Epoch: 25 June)

Event Time Altitude Azimuth Distance (km) Brightness Sun altitude
Rises 18:18:15 0° 320° (NW) 19,062 12.7 -15.6°
Reaches altitude 10° 18:48:44 10° 313° (NW) 19,079 11.9 -18.9°
Maximum altitude 19:50:50 19° 289° (WNW) 15,305 10.6 -23.7°
Drops below altitude 10° 20:28:50 10° 253° (WSW) 10,534 9.4 -25.3°
Sets 20:39:53 0° 236° (SW) 9,205 8.9 -25.5°
